Regional Weather Roundup
Issued by NWS

Home | Current Version | Previous Version | Graphics & Text | Print | Product List | Glossary On
Versions: 1 2 3 4 5 6 7 8 9 10 11 12 13 14 15 16 17 18 19 20 21 22 23 24 25 26 27
000
ASUS45 KTFX 260610
RWRMT
MONTANA REGIONAL WEATHER ROUNDUP
NATIONAL WEATHER SERVICE GREAT FALLS MT
1100 PM MST SAT FEB 25 2017

NOTE: "FAIR" INDICATES FEW OR NO CLOUDS BELOW 12000 FEET WITH NO
SIGNIFICANT WEATHER AND/OR OBSTRUCTIONS TO VISIBILITY.

MTZ001>007-043-260700-
WEST OF THE DIVIDE

CITY           SKY/WX    TMP DP  RH WIND       PRES   REMARKS
KALISPELL      CLOUDY    25  22  88 S10       29.82S FOG     WCI  15
MISSOULA       CLOUDY    29  17  61 SE3       29.85S
BUTTE          CLOUDY    21   6  52 W9        29.75S WCI  11
MULLAN PASS    LGT SNOW  15  13  91 VRB5      29.68S FOG
ANACONDA         N/A     19   7  58 CALM      29.77S
DEER LODGE       N/A     25   9  50 E5        29.79S
EUREKA           N/A     27  19  74 E9        29.80F WCI  17
HAMILTON         N/A     28  12  50 S10       29.83F WCI  19
LIBBY            N/A     27  23  86 CALM      29.81F
PLAINS           N/A     29  19  66 N6        29.86F WCI  23
RONAN            N/A     25  22  88 E1        29.89S
$$

MTZ008-052>055-260700-
SOUTHWEST MONTANA

CITY           SKY/WX    TMP DP  RH WIND       PRES   REMARKS
BOZEMAN        CLOUDY    18   6  59 E6        29.78S WCI  10
DILLON         CLOUDY    20   8  60 SW17      29.77F WCI   5
W YELLOWSTONE  FLURRIES   9   5  85 SW13G20   29.79S WCI  -7
ENNIS          CLOUDY    18   9  68 SE16      29.83S WCI   3
THREE FORKS      N/A     25  25 100 CALM      29.80S
TWIN BRIDGES     N/A     22   6  50 SE6       29.80F WCI  15
$$

MTZ009-010-012-014-046-048-049-054-260700-
EAST SLOPES AND CENTRAL MONTANA

CITY           SKY/WX    TMP DP  RH WIND       PRES   REMARKS
CUT BANK       CLOUDY    25  14  63 W24G35    29.61R WCI   9
GREAT FALLS    CLOUDY    27   9  46 SW17      29.66R WCI  14
MALMSTROM AFB  CLOUDY    28  11  48 SW18G25   29.67R WCI  15
HELENA         CLOUDY    28  10  46 W12       29.76S WCI  18
AUGUSTA        CLOUDY    25   7  45 W28G37    29.62R WCI   9
BOWMANS CRNR   CLOUDY    25   8  48 W16       29.64R WCI  12
CHOTEAU          N/A     28   7  40 W20G30    29.63R WCI  15
CONRAD           N/A     28  16  61 SW7       29.68R WCI  21
POWER          CLOUDY    27   9  47 SW12      29.63R WCI  16
RAYNESFORD     CLOUDY    26  10  50 W25G32    29.65R WCI  11
ULM            CLOUDY    28  10  47 MISG      29.68R
$$

MTZ011-013-016-021-045-047-050-051-260700-
NORTH CENTRAL MONTANA

CITY           SKY/WX    TMP DP  RH WIND       PRES   REMARKS
HAVRE          CLOUDY    30  19  63 W15       29.63R WCI  19
LEWISTOWN      CLEAR     20   8  60 SW16      29.63R WCI   6
N BAR RANCH    MOCLDY    16   5  62 CALM      29.63S
CHINOOK          N/A     28  19  69 W8        29.63R WCI  20
DENTON           N/A     24  11  57 W21G31    29.61R WCI  10
FORT BENTON      N/A     30  10  43 N14       29.68R WCI  20
GEYSER         MOCLDY    25   9  51 W14       29.63R WCI  13
GRASS RANGE    MOCLDY    21  11  66 W13       29.59S WCI   9
JUDITH GAP     MOCLDY    17   4  58 SE5       29.62R
ROY              N/A     23  13  65 MISG      29.61R
STANFORD       MOCLDY    24   9  51 W15       29.62R WCI  12
WINIFRED         N/A     23  12  62 W16       29.61R WCI  10
$$

MTZ017>020-022>027-061-062-260700-
NORTHEAST MONTANA

CITY           SKY/WX    TMP DP  RH WIND       PRES   REMARKS
GLASGOW        CLOUDY    18  14  84 SE10      29.65S WCI   6
JORDAN           N/A     23  18  81 W7        29.63F WCI  15
SIDNEY         CLOUDY    14  12  92 CALM      29.71S
WOLF POINT     CLOUDY    12   7  80 NE5       29.70S
PLENTYWOOD       N/A      3   0  85 CALM      29.69R
POPLAR           N/A     12   9  85 CALM      29.71S
SCOBEY           N/A      4  -5  66 CALM      29.67R
$$

MTZ028>42-056>058-260700-
SOUTHCENTRAL AND SOUTHEAST MONTANA

CITY           SKY/WX    TMP DP  RH WIND       PRES   REMARKS
BAKER          CLOUDY    21  16  81 NW3       29.66S
BILLINGS       CLOUDY    25  13  60 SW12      29.68S WCI  14
LIVINGSTON     PTCLDY    22   8  55 W18G29    29.72R WCI   7
MILES CITY     MOCLDY    26  18  71 SW10      29.67S WCI  16
BIG TIMBER     CLOUDY    23  12  63 W37G45    29.68R HAZE    WCI   4
EKALAKA          N/A     21  14  74 SW7       29.66R WCI  12
FORSYTH          N/A     27  16  63 SW6       29.68S WCI  20
HARLOWTON      MOCLDY    23   9  54 W17G24    29.64S WCI   9
LAUREL           N/A     18   6  59 SW3       29.69S
$$

REGIONAL REPORTS...DAKOTAS

CITY           SKY/WX    TMP DP  RH WIND       PRES   REMARKS
WILLISTON      CLOUDY     3   0  87 CALM      29.71S
MINOT          CLOUDY     9   6  88 W7        29.70S WCI  -2
DICKINSON      CLOUDY    18  15  88 N6        29.64R WCI  10
BEACH            N/A    N/A N/A N/A MISG        N/A
CROSBY           N/A      5   3  92 SW5       29.73R
TIOGA          FOG       -2  -2 100 SW5       29.70R VSB 1/4
WATFORD CITY   MOCLDY     7   5  92 CALM      29.70S
BISMARCK       CLOUDY    25  20  81 NW17      29.68R WCI  12
GRAND FORKS    LGT SNOW  17   9  70 N9        29.72S WCI   6
FARGO          CLEAR     22  18  85 W5        29.70F
BUFFALO SD       N/A     17  13  84 W8        29.60S WCI   7
RAPID CITY     PTCLDY    15  11  83 NW6       29.71F WCI   6
$$

REGIONAL REPORTS...WYOMING/IDAHO/WASHINGTON

CITY           SKY/WX    TMP DP  RH WIND       PRES   REMARKS
GILLETTE       CLOUDY    21  16  81 W8        29.69S WCI  11
SHERIDAN       CLEAR     16   9  74 S9        29.70S WCI   4
BUFFALO WY     CLEAR     15   5  64 SW7       29.67F WCI   5
CODY           CLEAR     22   1  40 W17G38    29.69S WCI   8
YELLOWSTONE LA   N/A     -1  -4  87 CALM      29.75F
IDAHO FALLS    CLEAR     11   9  92 SW7       29.91F WCI   0
SALMON         CLOUDY    27  10  50 SW9       29.87S WCI  17
BOISE          PTCLDY    29  18  63 SE7       29.97F WCI  22
SPOKANE        CLOUDY    31  23  72 S10       29.82F WCI  22
$$

REGIONAL REPORTS...ALBERTA

CITY           SKY/WX    TMP DP  RH WIND       PRES   REMARKS
EDMONTON       PTCLDY    18  12  79 N13       29.73R WCI   4
CALGARY        CLOUDY    21  16  79 NW13      29.66R FOG     WCI   9
LETHBRIDGE     LGT SNOW  27  23  86 N16G30    29.66R WCI  14
MEDICINE HAT   CLOUDY    21  18  86 W5        29.62R
WATERTON GATE    N/A     23  10  58 SW22G35     N/A  WCI   8
MILK RIVER       N/A     27  19  74 W23G29      N/A  WCI  12
$$

REGIONAL REPORTS...SASKATCHEWAN

CITY           SKY/WX    TMP DP  RH WIND       PRES   REMARKS
SWIFT CURRENT  LGT SNOW  16  12  86 S9        29.59R WCI   4
REGINA         MOCLDY     5   3  92 S6        29.68S WCI  -6
SASKATOON      FLURRIES  16  14  93 SW5       29.65S
CYPRESS HILLS    N/A     19  14  79 W3          N/A
VAL MARIE        N/A     14  10  85 E1          N/A
ROCKGLEN         N/A      9   7  92 S6          N/A  WCI  -1
ASSINIBOIA       N/A     18  14  86 NW10        N/A  WCI   6
$$




USA.gov is the U.S. government's official web portal to all federal, state and local government web resources and services.